Location: Hobi?a Gr?di?te
(45.4833°N, 22.7833°E)
Time: 20:13:00
(UTC+00:00)

Okean O Rocket - Pass Details

Date: 28 January 2023
Orbit: 620 x 643 km, 98.1° (Epoch: 22 March)

Event Time Altitude Azimuth Distance (km) Brightness Sun altitude
Exits shadow 17:10:42 15° 140° (SE) 1,670 3.5 -17.8°
Maximum altitude 17:14:01 47° 71° (ENE) 842 1.8 -18.4°
Drops below altitude 10° 17:18:15 10° 358° (N) 2,029 4.2 -19.1°
Sets 17:20:31 0° 352° (N) 2,946 5.1 -19.5°
